Weather Roundup
Issued by NWS Springfield, MO

Home | Current Version | Previous Version | Text Only | Print | Product List | Glossary On
Versions: 1 2 3 4 5 6 7 8 9 10 11 12 13 14 15 16 17 18 19 20 21 22 23 24 25 26 27 28 29 30 31 32 33 34 35 36 37 38 39 40 41 42 43 44 45 46 47 48 49 50
000
NZUS99 KSGF 241807
HRRSGF

HOURLY WEATHER
NATIONAL WEATHER SERVICE SPRINGFIELD MO
100 PM CDT SAT JUN 24 2017

......SGF CWA......

CITY           SKY/WX    TMP DP  RH WIND       PRES   REMARKS
SPRINGFIELD    CLOUDY    76  52  43 N12       30.21S
6HR MIN TEMP:  60; 6HR MAX TEMP:  76;

JOPLIN         SUNNY     79  53  40 N12       30.23S
6HR MIN TEMP:  63; 6HR MAX TEMP:  79;

WEST PLAINS    MOSUNNY   76  53  44 VRB7G17   30.20R
6HR MIN TEMP:  64; 6HR MAX TEMP:  78;

ROLLA          SUNNY     75  51  43 W13G20    30.17F
6HR MIN TEMP:  61; 6HR MAX TEMP:  75;

OSAGE BEACH    SUNNY     75  47  36 W10G17    30.20S
BRANSON        PTSUNNY   75  52  43 N5        30.23R

......SURROUNDING SGF CWA......

CITY           SKY/WX    TMP DP  RH WIND       PRES   REMARKS
CHANUTE        SUNNY     80  45  28 N9        30.24S
PARSONS        SUNNY     80  51  36 VRB3      30.24F
COFFEYVILLE    SUNNY     79  51  37 N9        30.23S
EMPORIA        SUNNY     76  44  32 NE5       30.26S
GROVE OK       PTSUNNY   77  55  47 N7        30.24S
ROGERS AR      CLOUDY    75  55  49 N9        30.24R
SILOAM SPRINGS CLOUDY    75  54  46 N9        30.23S
HARRISON AR    PTSUNNY   75  55  49 N9        30.22R
NEAR YELLVILLE PTSUNNY   79  52  38 N7        30.17

......KANSAS AND MISSOURI......

CITY           SKY/WX    TMP DP  RH WIND       PRES   REMARKS
KANSAS CTY INT MOSUNNY   75  46  35 VRB3      30.24F
DOWNTOWN KC    SUNNY     77  43  29 CALM      30.22F
COLUMBIA       SUNNY     75  45  34 NW16      30.18S
SEDALIA        SUNNY     76  47  35 NW12      30.22S
ST JOSEPH      SUNNY     76  42  29 MISG      30.23S
ST LOUIS       MOSUNNY   79  47  32 NW12G22   30.14S
SPIRIT OF STL  MOSUNNY   77  50  38 NW12G20   30.13F
KIRKSVILLE     SUNNY     74  43  32 NW12G22   30.19F
WICHITA        PTSUNNY   77  52  41 E6        30.25F
TOPEKA         SUNNY     77  46  33 N5        30.24F
OLATHE         SUNNY     76  41  28 N12       30.24F

......TENNESSEE......

CITY           SKY/WX    TMP DP  RH WIND       PRES   REMARKS
MEMPHIS        MOSUNNY   82  62  50 N10       30.10S
NASHVILLE      PTSUNNY   82  59  45 NW5       30.07S

......ARKANSAS.......

CITY           SKY/WX    TMP DP  RH WIND       PRES   REMARKS
FAYETTEVILLE   PTSUNNY   76  55  48 NE5       30.22S
FT SMITH       CLOUDY    80  56  43 NE7       30.18F
LITTLE ROCK    CLOUDY    77  61  57 NE9       30.15S

......OKLAHOMA.......

CITY           SKY/WX    TMP DP  RH WIND       PRES   REMARKS
TULSA          MOSUNNY   81  56  42 VRB6      30.21S
PONCA CITY     SUNNY     80  49  33 E9G22     30.24F
MCALESTER      PTSUNNY   78  59  51 N7        30.19F
OKLAHOMA CITY  PTSUNNY   82  48  30 E15G22    30.21F

......IOWA............

CITY           SKY/WX    TMP DP  RH WIND       PRES   REMARKS
DES MOINES     MOSUNNY   74  38  27 W15G23    30.14F
QUAD CITIES    SUNNY     72  41  32 W18G26    30.09S

......ILLINOIS........

CITY           SKY/WX    TMP DP  RH WIND       PRES   REMARKS
QUINCY         SUNNY     73  45  36 NW18G24   30.14F
CHICAGO        PTSUNNY   73  49  42 W12G22    29.99R



USA.gov is the U.S. government's official web portal to all federal, state and local government web resources and services.